sat.trackr.live / text

‹ back to catalog

OTTER

NORAD 62623 · 2025-009Q

PAYLOAD ACTIVE UNKNOWN

§ Identity

Operator
Country
US
Launch date
2025-01-14
Launch site
AFWTR
Launch vehicle
Mass (kg)
RCS (m²)

External: N2YO · Heavens-Above · Gunter

§ Orbital elements

Epoch: 2026-09-22T17:46:23.912256Z

Period
94.03 min
Inclination
97.3976°
Eccentricity
0.0003690
Mean motion
15.31474235 rev/d
Perigee alt
468.9 km
Apogee alt
473.9 km
Semi-major
6,849.6 km
B*
2.2781e-4
RAAN
347.6118°
Arg perigee
341.3056°
Mean anomaly
18.8049°
Rev number
9,384

§ Raw data

OTTER1 62623U 25009Q   26265.74055454  .00006847  00000+0  22781-3 0  99972 62623  97.3976 347.6118 0003690 341.3056  18.8049 15.31474235 93841

JSON: /api/v1/satellites/62623 · /tle

For live sub-satellite position, see the globe view (requires WebGL).

§ Visibility from observer

Set your observer location to see the next 7 days of passes ≥ 10°. The values pass through the URL so the page stays shareable.

No JS? Fill the form by hand. The geolocation button needs JavaScript.